ANDOYA current weather conditions

sailwx.info

Wind from 190 at 17 knots

Air temperature 3.0° C
Visibility: greater than 5.4 NM
Dewpoint -0.0° C
Present weather: Showers in the vicinity.

Last reported at 2015-Jan-26 16:20 UTC.
Time now 2015-Jan-26 18:29 UTC

Location: N 69°18' E 016°09'.
View on Google Maps.

See reports from other nearby stations

  
Tides and Currents Weather Stations Pressure Air Temp Water Temp Dewpoint Dewpoint Depression Visibility Wind Speed Wind Dir Waves Ship Positions
date/time (UTC)wind fromknots sea level pressurealtimeterstation pressurevisibilityair tempwater tempwave heightnotes
2015-Jan-26 17:20 180 17 5.4 3.0 Showers in the vicinity.
2015-Jan-26 16:50 170 15 5.4 2.0 Showers in the vicinity.
2015-Jan-26 16:20 190 17 5.4 3.0 Showers in the vicinity.
2015-Jan-26 15:50 230 11 5.4 3.0 Light rain showers.
2015-Jan-26 15:20 170 14 5.4 2.0 Showers in the vicinity.
2015-Jan-26 14:50 180 15 5.4 3.0 Showers in the vicinity.
2015-Jan-26 14:20 180 12 5.4 2.0 Showers in the vicinity.
2015-Jan-26 13:50 180 14 5.4 2.0 Showers in the vicinity.
2015-Jan-26 13:20 170 14 5.4 2.0 Showers in the vicinity.
2015-Jan-26 12:50 170 11 5.4 2.0 Showers in the vicinity.
2015-Jan-26 12:20 220 9 1.3 2.0 Rain showers.
2015-Jan-26 11:50 210 16 5.4 3.0 Light rain showers.
2015-Jan-26 11:20 180 17 5.4 3.0 Showers in the vicinity.
2015-Jan-26 10:50 180 16 5.4 3.0 Showers in the vicinity.
2015-Jan-26 10:20 180 16 5.4 3.0 Showers in the vicinity.
2015-Jan-26 09:50 160 13 5.4 2.0 Showers in the vicinity.
2015-Jan-26 09:20 170 15 5.4 2.0 Showers in the vicinity.
2015-Jan-26 08:50 180 12 5.4 3.0 Showers in the vicinity.
2015-Jan-26 08:20 190 12 5.4 3.0 Showers in the vicinity.
2015-Jan-26 07:50 220 8 5.4 3.0 Light rain showers.
2015-Jan-26 07:20 200 17 5.4 3.0 Light rain showers.
2015-Jan-26 06:50 180 19 5.4 3.0
2015-Jan-26 06:20 170 18 5.4 2.0
2015-Jan-26 05:50 170 16 5.4 2.0
2015-Jan-26 05:20 190 18 5.4 2.0 Light rain.
2015-Jan-26 04:50 190 19 5.4 3.0 Light rain.
2015-Jan-26 04:20 180 23 5.4 3.0 Light rain.
2015-Jan-26 03:50 170 25 5.4 3.0 Light rain snow.
2015-Jan-26 02:50 170 25 5.4 3.0 Light rain snow.
2015-Jan-26 01:50 150 23 5.4 3.0 Light rain snow.
2015-Jan-26 00:50 150 26 5.4 2.0 Light rain snow.
2015-Jan-25 23:50 140 26 5.4 3.0 Light snow rain.
2015-Jan-25 22:50 170 25 5.4 3.0 Light snow rain.
2015-Jan-25 19:50 160 15 5.4 3.0
2015-Jan-25 18:50 170 20 5.4 3.0
2015-Jan-25 17:50 170 17 5.4 3.0
2015-Jan-25 17:20 180 15 5.4 2.0
2015-Jan-25 16:50 170 9 5.4 1.0
2015-Jan-25 16:20 180 9 5.4 1.0
2015-Jan-25 15:50 190 10 5.4 1.0
2015-Jan-25 15:20 180 13 5.4 1.0 Showers in the vicinity.
2015-Jan-25 14:50 190 12 5.4 1.0 Light rain showers.
2015-Jan-25 14:20 180 13 5.4 1.0 Showers in the vicinity.
2015-Jan-25 13:50 220 15 5.4 2.0 Light rain showers.
2015-Jan-25 13:20 210 5 5.4 1.0 Showers in the vicinity.
2015-Jan-25 12:50 190 11 5.4 2.0 Showers in the vicinity.
2015-Jan-25 12:20 200 12 5.4 2.0 Showers in the vicinity.
2015-Jan-25 11:50 200 7 5.4 2.0 Showers in the vicinity.
2015-Jan-25 11:20 200 10 1.6 2.0 Snow showers.
2015-Jan-25 10:50 230 15 5.4 2.0 Light rain showers.
2015-Jan-25 10:20 200 9 5.4 2.0 Light rain showers.
2015-Jan-25 09:50 220 15 2.2 2.0 Rain showers.
2015-Jan-25 09:20 220 12 5.4 3.0
2015-Jan-25 08:50 220 16 5.4 2.0
2015-Jan-25 08:20 220 14 5.4 3.0
2015-Jan-25 07:50 190 11 5.4 1.0
2015-Jan-25 07:20 210 12 5.4 2.0
2015-Jan-25 06:50 210 15 5.4 2.0 Showers in the vicinity.
2015-Jan-25 06:20 180 11 5.4 1.0
2015-Jan-25 05:50 210 13 5.4 1.0
2015-Jan-25 05:20 200 9 5.4 1.0
2015-Jan-25 04:50 190 10 5.4 1.0
2015-Jan-25 04:20 220 10 5.4 2.0
2015-Jan-25 03:50 200 12 5.4 2.0
2015-Jan-25 03:20 210 14 5.4 2.0
2015-Jan-25 02:50 230 14 5.4 1.0
2015-Jan-25 01:50 220 10 5.4 1.0
2015-Jan-25 00:50 200 11 5.4 1.0
2015-Jan-24 23:50 220 12 5.4 3.0
2015-Jan-24 22:50 180 14 5.4-1.0
2015-Jan-24 21:50 180 15 5.4-1.0
2015-Jan-24 20:50 190 7 5.4-0.0
2015-Jan-24 19:50 150 16 5.4-1.0
2015-Jan-24 18:50 150 16 0.8-1.0 Snow.